Weather in Pregradnoe

Russia / Stavropol Krai     45°49′15″N   41°44′41″E
temp.,
°C
wind,
m/s
gust,
m/s
humid.,
%
clouds,
%
prec.,
mm/h
press.,
hPa
HPBL,
m
14 april, wed
wed1400:00+9nnw3595100 0.0 101993
03:00+8nw2296100 0.0 101831
06:00+8wsw3597100 0.0 1018145
09:00+11w5687100 0.0 1017520
12:00+13wsw5679100 0.1 1017835
15:00+13w567578 0.3 1017869
18:00+13wsw467791 0.1 1016384
21:00+9wsw23921 0.1 101835
15 april, thu
thu1500:00+8wsw339388 0.0 101744
03:00+8w22927 0.0 101716
06:00+8wsw22937 0.0 101817
09:00+14wsw22680 0.0 1018443
12:00+18w34460 0.0 10171300
15:00+19wnw354668 0.0 10161970
18:00+16nw246579 0.0 101792
21:00+14wsw226778 0.0 101711
16 april, fri
fri1600:00+11wsw2279100 0.1 101712
03:00+11sw2283100 0.1 101716
06:00+10w2288100 0.1 101833
09:00+14w006876 0.1 1018338
12:00+19ese135491 0.1 10171454
15:00+18nne325799 1.6 1016744
18:00+10nw9139198 4.3 1018504
21:00+10nw3493100 9.1 1020252
17 april, sat
sat1700:00+11wsw3592100 0.8 1020393
03:00+10wnw3694100 1.1 1020433
06:00+8wnw248899 2.9 1022181
09:00+11w45680 0.4 1022815
12:00+15w34515 0.0 10231677
15:00+16w3343100 0.0 10231854
18:00+14wsw1155100 0.0 102316
21:00+11ne115887 0.0 102310
18 april, sun
sun1800:00+9e3470100 0.0 102363
03:00+8e36768 0.0 1022112
06:00+8e4976100 0.0 1023196
09:00+13ese6964100 0.0 1022718
12:00+16ese665794 0.0 10211283
15:00+15ese5658100 0.0 1020948
18:00+14ene4971100 0.0 1020276
21:00+13ene4973100 0.0 1021257